Location: Napoli
(40.8639°N, 14.2562°E)
Time: 22:55:41
(UTC+02:00)

ISS - Visible Passes

Search period start: 17 April 2026 00:00
Search period end: 27 April 2026 00:00
Orbit: 416 x 425 km, 51.6° (Epoch: 17 April)

Date Brightness Start Highest point End Pass type
(mag) Time Alt. Az. Time Alt. Az. Time Alt. Az.
18 Apr -2.9 05:24:43 11° SSW 05:27:42 44° SE 05:30:57 10° ENE visible
19 Apr -2.1 04:39:30 22° SSE 04:40:32 26° SE 04:43:24 10° ENE visible
20 Apr -1.1 03:54:11 14° ESE 03:54:11 14° ESE 03:55:30 10° E visible
20 Apr -3.5 05:27:09 14° WSW 05:29:55 61° NNW 05:33:16 10° NE visible
21 Apr -3.8 04:41:45 47° SW 04:42:37 80° SE 04:46:00 10° NE visible
22 Apr -2.3 03:56:16 35° E 03:56:16 35° E 03:58:35 10° ENE visible
22 Apr -2.2 05:29:21 10° W 05:32:17 27° NNW 05:35:15 10° NE visible
23 Apr -0.6 03:10:42 12° ENE 03:10:42 12° ENE 03:11:01 10° ENE visible
23 Apr -2.8 04:43:40 28° WNW 04:44:50 38° NNW 04:48:02 10° NE visible
24 Apr -2.9 03:58:03 49° NNE 03:58:03 49° NNE 04:00:48 10° NE visible
24 Apr -1.4 05:32:30 10° WNW 05:34:48 17° NNW 05:37:07 10° NNE visible
25 Apr -1.0 03:12:22 19° ENE 03:12:22 19° ENE 03:13:28 10° NE visible
25 Apr -1.7 04:45:20 14° WNW 04:47:14 21° NNW 04:49:53 10° NNE visible
26 Apr -2.1 03:59:36 27° NNW 03:59:43 27° NNW 04:02:39 10° NE visible
26 Apr -1.1 05:35:37 10° NW 05:37:24 14° N 05:39:11 10° NNE visible
